EW0923 Weather Reports


time (UTC)temp
F
wind
direction
speed
knots
gust
knots
rain 1hr
in
rain 24hr
in
rain mn
in
humidity
%
barometer
mb
20260505093045 59 158 0.9 2.6 0.00 0.00 0.00 79 1010.4
20260505092525 59 219 0.9 2.6 0.00 0.00 0.00 79 1010.3
20260505092025 59 257 0.9 2.6 0.00 0.00 0.00 80 1010.3
20260505091549 59 160 0.9 3.5 0.00 0.00 0.00 80 1010.3
20260505091024 59 153 0.9 5.2 0.00 0.00 0.00 80 1010.2
20260505090524 59 197 0.9 5.2 0.00 0.00 0.00 80 1010.2
20260505090056 59 155 0.9 1.7 0.00 0.00 0.00 80 1010.2
20260505085526 59 179 0.9 1.7 0.00 0.00 0.00 79 1010.2
20260505085028 59 150 0.0 3.5 0.00 0.00 0.00 79 1010.4
20260505084546 59 246 0.9 3.5 0.00 0.00 0.00 79 1010.4
20260505084027 59 206 0.9 5.2 0.00 0.00 0.00 79 1010.4
20260505083527 59 265 1.7 5.2 0.00 0.00 0.00 79 1010.3
20260505083049 59 162 1.7 9.6 0.00 0.00 0.00 79 1010.4
20260505082527 59 252 1.7 9.6 0.00 0.00 0.00 79 1010.3
20260505082025 59 244 1.7 7.8 0.00 0.00 0.00 78 1009.9
20260505081544 60 217 1.7 7.0 0.00 0.00 0.00 78 1010.0
20260505081025 60 193 2.6 7.0 0.00 0.00 0.00 76 1010.1
20260505080528 60 235 2.6 7.0 0.00 0.00 0.00 74 1010.2
20260505080045 60 199 1.7 4.3 0.00 0.00 0.00 74 1010.3
20260505075524 60 206 1.7 4.3 0.00 0.00 0.00 73 1010.3
20260505075027 60 218 1.7 6.1 0.00 0.00 0.00 73 1010.4
20260505074544 60 257 1.7 6.1 0.00 0.00 0.00 73 1010.1
20260505074027 60 271 0.9 4.3 0.00 0.00 0.00 73 1010.1
20260505073525 60 216 1.7 4.3 0.00 0.00 0.00 73 1010.1
20260505073055 60 153 0.0 3.5 0.00 0.00 0.00 73 1010.0
20260505072524 60 256 0.9 3.5 0.00 0.00 0.00 74 1010.1
20260505072027 60 252 0.9 4.3 0.00 0.00 0.00 74 1010.0
20260505071544 59 221 1.7 4.3 0.00 0.00 0.00 74 1010.0
20260505071024 59 286 1.7 4.3 0.00 0.00 0.00 74 1009.9
20260505070524 59 234 0.9 3.5 0.00 0.00 0.00 74 1010.0
20260505070050 59 259 0.9 3.5 0.00 0.00 0.00 75 1009.9
20260505065524 59 271 0.0 4.3 0.00 0.00 0.00 74 1009.8
20260505065027 59 273 0.9 4.3 0.00 0.00 0.00 74 1009.8
20260505064546 59 225 0.9 4.3 0.00 0.00 0.00 74 1009.9
20260505064024 59 245 0.9 4.3 0.00 0.00 0.00 74 1009.9
20260505063524 59 254 0.0 3.5 0.00 0.00 0.00 74 1009.9
20260505063049 59 215 0.9 4.3 0.00 0.00 0.00 73 1009.8
20260505062528 59 241 0.9 4.3 0.00 0.00 0.00 73 1010.0
20260505062030 59 211 0.9 4.3 0.00 0.00 0.00 73 1009.9
20260505061545 59 160 0.9 5.2 0.00 0.00 0.00 72 1010.0
20260505061029 60 256 1.7 5.2 0.00 0.00 0.00 72 1010.0
20260505060525 60 259 0.9 5.2 0.00 0.00 0.00 72 1009.9
20260505060040 60 181 1.7 6.1 0.00 0.00 0.00 71 1010.0
20260505055528 60 139 2.6 6.1 0.00 0.00 0.00 70 1009.9
20260505055025 60 251 1.7 6.1 0.00 0.00 0.00 70 1009.9
20260505054600 61 226 0.9 4.3 0.00 0.00 0.00 69 1010.1
20260505054025 61 180 1.7 5.2 0.00 0.00 0.00 68 1010.0
20260505053525 61 153 0.9 5.2 0.00 0.00 0.00 68 1010.1
20260505053049 61 225 1.7 5.2 0.00 0.00 0.00 67 1010.3
20260505052527 61 265 2.6 6.1 0.00 0.00 0.00 67 1010.2
20260505052028 61 161 0.9 6.1 0.00 0.00 0.00 66 1010.2
20260505051544 62 215 1.7 7.8 0.00 0.00 0.00 66 1010.2
20260505051027 62 209 2.6 7.8 0.00 0.00 0.00 66 1010.2
20260505050528 61 124 3.5 8.7 0.00 0.00 0.00 66 1010.2
20260505041550 61 240 1.7 6.1 0.00 0.00 0.00 65 1010.3
20260505041027 61 220 1.7 6.1 0.00 0.00 0.00 65 1010.3
20260505040528 61 234 2.6 7.0 0.00 0.00 0.00 65 1010.3
20260505040044 61 134 1.7 7.8 0.00 0.00 0.00 65 1010.2
20260505035527 61 237 2.6 7.8 0.00 0.00 0.00 65 1010.3
20260505035027 61 245 0.9 7.0 0.00 0.00 0.00 65 1010.2
20260505034537 61 121 1.7 7.0 0.00 0.00 0.00 65 1010.2
20260505034027 61 146 1.7 7.0 0.00 0.00 0.00 64 1010.2
20260505033527 61 203 1.7 6.1 0.00 0.00 0.00 64 1010.1
20260505033037 61 222 1.7 6.1 0.00 0.00 0.00 64 1010.1
20260505032527 61 162 1.7 6.1 0.00 0.00 0.00 64 1010.1
20260505032028 62 197 2.6 6.1 0.00 0.00 0.00 63 1010.0
20260505031545 62 130 1.7 7.0 0.00 0.00 0.00 63 1010.0
20260505031024 62 217 1.7 8.7 0.00 0.00 0.00 63 1010.3
20260505030525 62 212 2.6 8.7 0.00 0.00 0.00 63 1010.3
20260505030056 62 198 2.6 8.7 0.00 0.00 0.00 63 1010.4
20260505025528 62 246 1.7 8.7 0.00 0.00 0.00 63 1010.4
20260505025026 62 176 2.6 8.7 0.00 0.00 0.00 62 1010.4
20260505024537 62 281 2.6 7.8 0.00 0.00 0.00 62 1010.4
20260505024027 62 249 2.6 7.0 0.00 0.00 0.00 62 1010.4
20260505023525 62 200 1.7 7.0 0.00 0.00 0.00 62 1010.4
20260505023047 62 187 1.7 7.8 0.00 0.00 0.00 61 1010.6
20260505022527 62 163 2.6 7.8 0.00 0.00 0.00 61 1010.6
20260505022027 62 146 1.7 5.2 0.00 0.00 0.00 60 1010.5
20260505021553 62 171 0.9 5.2 0.00 0.00 0.00 59 1010.6
20260505021026 62 143 0.9 4.3 0.00 0.00 0.00 58 1010.4
20260505020526 62 182 0.9 5.2 0.00 0.00 0.00 58 1010.5
20260505020053 62 219 1.7 6.1 0.00 0.00 0.00 57 1010.4
20260505015527 62 180 1.7 6.1 0.00 0.00 0.00 56 1010.5
20260505015027 62 257 1.7 4.3 0.00 0.00 0.00 55 1010.5
20260505014543 63 146 1.7 5.2 0.00 0.00 0.00 53 1010.6
20260505014027 63 148 0.9 5.2 0.00 0.00 0.00 52 1010.5
20260505013527 63 163 0.9 7.0 0.00 0.00 0.00 51 1010.6
20260505013042 63 193 0.9 7.0 0.00 0.00 0.00 50 1010.4
20260505012527 63 136 0.9 4.3 0.00 0.00 0.00 49 1010.5
20260505012027 63 175 0.9 5.2 0.00 0.00 0.00 49 1010.3
20260505011546 64 169 1.7 5.2 0.00 0.00 0.00 48 1010.4
20260505011023 64 173 0.9 3.5 0.00 0.00 0.00 48 1010.2
20260505010524 64 225 0.9 3.5 0.00 0.00 0.00 47 1010.2
20260505010105 64 191 1.7 3.5 0.00 0.00 0.00 47 1010.2
20260505005526 64 205 0.0 1.7 0.00 0.00 0.00 47 1010.1
20260505005028 65 240 0.9 3.5 0.00 0.00 0.00 46 1010.0
20260505004546 65 192 0.9 3.5 0.00 0.00 0.00 46 1010.0
20260505004024 65 226 0.0 3.5 0.00 0.00 0.00 45 1010.0
20260505003524 65 219 0.9 4.3 0.00 0.00 0.00 45 1010.0
20260505003049 65 189 1.7 4.3 0.00 0.00 0.00 45 1010.0
20260505002524 66 215 0.0 6.1 0.00 0.00 0.00 44 1009.9
20260505002024 66 205 0.9 6.1 0.00 0.00 0.00 43 1009.9
20260505001541 66 207 1.7 5.2 0.00 0.00 0.00 43 1009.8
20260505001027 67 0 0.9 6.1 0.00 0.00 0.00 42 1009.8
20260505000525 67 250 1.7 6.1 0.00 0.00 0.00 42 1009.8
20260505000045 67 157 0.9 3.5 0.00 0.00 0.00 41 1009.8
20260504235527 67 150 0.9 3.5 0.00 0.00 0.00 41 1009.6
20260504235024 68 146 0.0 4.3 0.00 0.00 0.00 40 1009.6
20260504234544 68 256 0.9 4.3 0.00 0.00 0.00 39 1009.6
20260504234027 69 156 0.9 4.3 0.00 0.00 0.00 39 1009.6
20260504233523 69 161 0.9 3.5 0.00 0.00 0.00 38 1009.6
20260504233051 69 199 0.9 3.5 0.00 0.00 0.00 37 1009.5
20260504232528 70 169 0.0 3.5 0.00 0.00 0.00 37 1009.6
20260504232025 70 262 1.7 5.2 0.00 0.00 0.00 36 1009.5
20260504231542 70 265 0.9 5.2 0.00 0.00 0.00 36 1009.5
20260504231024 70 243 1.7 6.1 0.00 0.00 0.00 35 1009.6
20260504230527 70 252 1.7 6.1 0.00 0.00 0.00 35 1009.5
20260504230100 71 211 1.7 8.7 0.00 0.00 0.00 35 1009.5
20260504225524 71 266 2.6 8.7 0.00 0.00 0.00 35 1009.6
20260504225024 71 277 1.7 7.8 0.00 0.00 0.00 35 1009.5
20260504224556 71 220 1.7 8.7 0.00 0.00 0.00 35 1009.6
20260504224024 71 248 2.6 8.7 0.00 0.00 0.00 34 1009.6
20260504223524 71 265 1.7 7.8 0.00 0.00 0.00 34 1009.5
20260504223039 71 238 3.5 8.7 0.00 0.00 0.00 34 1009.6
20260504222525 71 277 2.6 8.7 0.00 0.00 0.00 34 1009.5
20260504222023 71 219 2.6 10.4 0.00 0.00 0.00 34 1009.5
20260504221544 71 271 2.6 10.4 0.00 0.00 0.00 34 1009.5
20260504221030 71 267 4.3 10.4 0.00 0.00 0.00 34 1009.5
20260504220527 71 262 1.7 7.0 0.00 0.00 0.00 34 1009.4
20260504220051 71 262 1.7 10.4 0.00 0.00 0.00 34 1009.5
20260504215531 71 219 3.5 10.4 0.00 0.00 0.00 33 1009.5
20260504215026 72 232 3.5 7.8 0.00 0.00 0.00 33 1009.4
20260504214543 72 263 1.7 10.4 0.00 0.00 0.00 32 1009.4
20260504214027 72 298 3.5 10.4 0.00 0.00 0.00 32 1009.5
20260504213527 72 269 2.6 9.6 0.00 0.00 0.00 33 1009.5
20260504213040 72 153 4.3 9.6 0.00 0.00 0.00 32 1009.5
20260504212528 72 270 3.5 8.7 0.00 0.00 0.00 32 1009.5
20260504212027 72 294 3.5 8.7 0.00 0.00 0.00 33 1009.4
20260504211546 72 147 3.5 13.0 0.00 0.00 0.00 32 1009.4
20260504211027 72 261 4.3 13.0 0.00 0.00 0.00 32 1009.4
20260504210820 72 321 3.5 9.6 0.00 0.00 0.00 32 1009.5
20260504210059 72 282 2.6 9.6 0.00 0.00 0.00 31 1009.4
20260504205528 72 196 2.6 6.1 0.00 0.00 0.00 31 1009.4
20260504205031 72 289 2.6 12.2 0.00 0.00 0.00 31 1009.4
20260504204547 72 283 3.5 12.2 0.00 0.00 0.00 31 1009.4
20260504204028 72 288 2.6 11.3 0.00 0.00 0.00 31 1009.3
20260504203527 72 250 4.3 12.2 0.00 0.00 0.00 31 1009.3
20260504203044 72 260 3.5 12.2 0.00 0.00 0.00 31 1009.3
20260504202527 72 275 3.5 12.2 0.00 0.00 0.00 31 1009.4
20260504202026 72 205 4.3 12.2 0.00 0.00 0.00 31 1009.5
20260504201546 72 259 2.6 12.2 0.00 0.00 0.00 31 1009.4
20260504201024 72 244 2.6 12.2 0.00 0.00 0.00 31 1009.5
20260504200530 72 295 2.6 11.3 0.00 0.00 0.00 29 1009.4
20260504200049 72 240 3.5 11.3 0.00 0.00 0.00 29 1009.6
20260504195525 72 251 2.6 11.3 0.00 0.00 0.00 30 1009.6
20260504195025 72 288 2.6 13.0 0.00 0.00 0.00 31 1009.6
20260504194544 72 269 3.5 13.0 0.00 0.00 0.00 31 1009.7
20260504194025 72 272 5.2 13.0 0.00 0.00 0.00 30 1010.0
20260504193528 72 283 1.7 11.3 0.00 0.00 0.00 30 1009.9
20260504193045 72 286 3.5 11.3 0.00 0.00 0.00 30 1010.0
20260504192526 71 294 2.6 9.6 0.00 0.00 0.00 30 1010.0
20260504192030 72 275 1.7 13.0 0.00 0.00 0.00 30 1010.1
20260504191552 71 298 2.6 13.0 0.00 0.00 0.00 31 1010.2
20260504191027 71 285 4.3 11.3 0.00 0.00 0.00 29 1010.2
20260504190527 71 287 5.2 11.3 0.00 0.00 0.00 30 1010.3
20260504190041 71 257 3.5 9.6 0.00 0.00 0.00 31 1010.2
20260504185524 71 299 3.5 7.8 0.00 0.00 0.00 30 1010.4
20260504185025 71 271 2.6 10.4 0.00 0.00 0.00 31 1010.4
20260504184544 71 303 2.6 10.4 0.00 0.00 0.00 31 1010.5
20260504184029 71 259 1.7 10.4 0.00 0.00 0.00 30 1010.6
20260504183526 71 201 3.5 13.0 0.00 0.00 0.00 31 1010.7
20260504183045 71 281 4.3 13.0 0.00 0.00 0.00 31 1010.6
20260504182525 71 247 2.6 13.9 0.00 0.00 0.00 30 1010.8
20260504182025 70 290 3.5 13.9 0.00 0.00 0.00 30 1011.0
20260504181543 70 249 4.3 12.2 0.00 0.00 0.00 31 1010.9
20260504181027 71 254 3.5 12.2 0.00 0.00 0.00 30 1011.0
20260504180527 70 219 3.5 11.3 0.00 0.00 0.00 32 1011.0
20260504180043 70 243 4.3 10.4 0.00 0.00 0.00 30 1011.2
20260504175526 70 270 2.6 7.8 0.00 0.00 0.00 33 1011.3
20260504175026 70 248 2.6 13.0 0.00 0.00 0.00 31 1011.4
20260504174550 70 310 3.5 13.0 0.00 0.00 0.00 31 1011.4
20260504174027 70 284 2.6 7.8 0.00 0.00 0.00 31 1011.4
20260504173528 69 302 1.7 11.3 0.00 0.00 0.00 32 1011.5
20260504173045 69 270 1.7 11.3 0.00 0.00 0.00 32 1011.6
20260504172525 70 284 1.7 7.8 0.00 0.00 0.00 32 1011.6
20260504172025 69 204 3.5 9.6 0.00 0.00 0.00 31 1011.7
20260504171545 69 279 3.5 10.4 0.00 0.00 0.00 30 1011.8
20260504171027 69 221 2.6 13.9 0.00 0.00 0.00 32 1012.0
20260504170526 68 269 3.5 13.9 0.00 0.00 0.00 32 1012.0
20260504151027 65 221 3.5 9.6 0.00 0.00 0.00 41 1013.2
20260504150526 65 282 2.6 7.8 0.00 0.00 0.00 42 1013.2
20260504141028 63 223 2.6 9.6 0.00 0.00 0.00 52 1013.3
20260504140525 62 257 2.6 10.4 0.00 0.00 0.00 51 1013.5
20260504130525 59 286 4.3 13.9 0.00 0.00 0.00 56 1013.8
20260504110526 48 255 0.0 0.9 0.00 0.00 0.00 79 1014.5
20260504100530 44 0 0.0 0.9 0.00 0.00 0.00 78 1014.5